AirNav   Air Wisconsin pilot careers
 
 461 users online  

Y96 Leo E Goetz County Airport
Onaway, Michigan, USA

GOING TO ONAWAY?


FAA INFORMATION EFFECTIVE 06 DECEMBER 2018

Location

FAA Identifier: Y96
Lat/Long: 45-22-15.0430N / 084-13-30.0520W
45-22.250717N / 084-13.500867W
45.3708453 / -84.2250144
(estimated)
Elevation: 830 ft. / 253 m (estimated)
Variation: 06W (1985)
From city: 1 mile N of ONAWAY, MI
Time zone: UTC -5 (UTC -4 during Daylight Saving Time)
Zip code: 49765

Airport Operations

Airport use: Open to the public
Activation date: 04/1940
Control tower: no
ARTCC: MINNEAPOLIS CENTER
FSS: LANSING FLIGHT SERVICE STATION
NOTAMs facility: LAN (NOTAM-D service available)
Attendance: UNATNDD
Wind indicator: yes
Segmented circle: yes

Airport Communications

CTAF: 122.9
WX AWOS-3 at PZQ (18 nm E): 118.125 (989-734-7419)

Nearby radio navigation aids

VOR radial/distance  VOR name  Freq  Var
PLNr136/24.2PELLSTON VORTAC111.8006W
GLRr049/29.5GAYLORD VOR/DME109.2006W
APNr308/33.1ALPENA VORTAC108.8007W

Airport Services

Parking: tiedowns
Airframe service: NONE
Powerplant service: NONE
Bottled oxygen: NONE
Bulk oxygen: NONE

Runway Information

Runway 15/33

Dimensions: 2600 x 60 ft. / 792 x 18 m
Surface: asphalt/L
Operational restrictions: RY 15/33 CLSD NOV-APR & WHEN SNOW COVERED. NO SNOW REMOVAL.
RUNWAY 15  RUNWAY 33
Latitude: 45-22.133333N45-21.762833N
Longitude: 084-13.566667W084-13.263167W
Elevation: 830.0 ft.830.0 ft.
Traffic pattern: leftleft
Markings: basic, in fair conditionbasic, in fair condition
Obstructions: 16 ft. road, 525 ft. from runway, 177 ft. right of centerline, 20:1 slope to clear40 ft. trees, 201 ft. from runway, 120 ft. left of centerline
25 FT TREES, 0-400 FT DSTC, 120 FT L.

Runway 3/21

Dimensions: 1400 x 100 ft. / 427 x 30 m
Surface: turf, in fair condition
EXTENSIVE PAVEMENT CRACKING.
Runway edge markings: RY 3/21 MARKED WITH 3 FT YELLOW CONES.
Operational restrictions: RY 03/21, CLSD NOV-APR & WHEN SNOW COVERED. NO SNOW REMOVAL.
RUNWAY 3  RUNWAY 21
Traffic pattern: leftleft
Obstructions: 41 ft. trees, 396 ft. from runway, 110 ft. right of centerline, 9:1 slope to clear36 ft. trees, 120 ft. from runway, 100 ft. right of centerline, 3:1 slope to clear

Airport Ownership and Management from official FAA records

Ownership: Publicly-owned
Owner: PRESQUE ISLE COUNTY
151 E. HURON RD, P.O. BOX 110
ROGERS CITY, MI 49779
Phone 989-734-4309
Manager: MICHAEL T JERMEAY
151 E. HURON RD, P.O. BOX 110
ROGERS CITY, MI 49779
Phone 989-464-6887

Airport Operational Statistics

Aircraft operations: 200/year *
50% transient general aviation
50% local general aviation
* for 12-month period ending 31 December 2014

Additional Remarks

RANDOM 10-20 FT. BRUSH & TREES IN PRIM SFC.
RY 15, 11 FT POWERLINE 750 FT FM THLD 125 FT R OF CNTRLN. RY 33 14 FT POWERLINE, 676 FT FM THLD, APCH RATIO 34:1.
ARPT TO BE CLSD (ABANDONED) MID 2019 - CHECK NOTAMS.

Instrument Procedures

There are no published instrument procedures at Y96.

Some nearby airports with instrument procedures:

KPZQ - Presque Isle County Airport (18 nm E)
KSLH - Cheboygan County Airport (21 nm NW)
6Y1 - Bois Blanc Island Airport (26 nm NW)
KPLN - Pellston Regional Airport of Emmet County (27 nm NW)
KMGN - Harbor Springs Airport (29 nm W)
 
Loc | Ops | Rwys | IFR | FBO | Links
Com | Nav | Svcs | Stats | Notes


 
Area around Y96 (Leo E Goetz County Airport)
 
Road maps at: MapQuest Bing Google
 
Aerial photo
No photo
 
Sectional chart

 
Airport distance calculator
Flying to Leo E Goetz County Airport? Find the distance to fly.

From to Y96

Sunrise and sunset
Times for 13-Dec-2018
 Local
(UTC-5)
 Zulu
(UTC)
Morning civil twilight07:3512:35
Sunrise08:0913:09
Sunset16:5321:53
Evening civil twilight17:2722:27

Current date and time
Zulu (UTC)  13-Dec-2018 06:25:28
Local (UTC-5)  13-Dec-2018 01:25:28
 
METAR
KPZQ 
18nm E 
130555Z AUTO 18003KT 4SM BR OVC009 01/00 A2999 RMK AO2 T00100000 10010 20003
KSLH 
21nm NW 
130555Z AUTO 07004KT 7SM BKN014 OVC026 01/M01 A2997 RMK AO2 T00051006 10009 20005
KPLN 
27nm NW 
130554Z AUTO 10005KT 6SM BR OVC014 01/M01 A2997 RMK AO2 SLP158 60000 T00061006 10011 20000 53014
KGLR 
29nm SW 
130553Z AUTO 12003KT 4SM BR OVC006 M01/M01 A2993 RMK AO2 SLP153 60001 T10061011 11006 21011 53016
KMGN 
29nm W 
130555Z AUTO 07007KT 5SM BR OVC025 00/00 A2995 RMK AO2 T00050000
KAPN 
33nm SE 
130554Z AUTO 12004KT 4SM BR OVC008 02/01 A2997 RMK AO2 CIG 006V011 SLP157 60004 T00170006 10017 20006 53008
KMCD 
33nm NW 
130555Z AUTO 11007KT 7SM BKN016 OVC028 01/M02 A2997 RMK AO2 T00081025 10012 20007
TAF
KPLN 
27nm NW 
130520Z 1306/1406 11004KT 6SM BR OVC012 FM130900 12004KT 2SM BR OVC008 FM131500 14006KT P6SM OVC018 FM140000 VRB03KT P6SM OVC015
KAPN 
33nm SE 
130520Z 1306/1406 12006KT 4SM BR OVC012 FM131500 14007KT P6SM OVC022 FM140000 VRB03KT P6SM OVC015
NOTAMs
Click for the latest NOTAMs
NOTAMs are issued by the DoD/FAA and will open in a separate window not controlled by AirNav.

 

 
 

Would you like to see your business listed on this page?

 If your business provides an interesting product or service to pilots, flight crews, aircraft, or users of the Leo E Goetz County Airport, you should consider listing it here.  To start the listing process, click on the button below
 
Add a business
 

Other Pages about Leo E Goetz County Airport

www.presqueislecounty.org/airport.html
Page from the Michigan Airport Directory (PDF)
 
Update a link
 
Copyright © AirNav, LLC. All rights reserved. Privacy Policy  Contact